TimeAST,TemperatureF,Dew PointF,Humidity,Sea Level PressureIn,VisibilityMPH,Wind Direction,Wind SpeedMPH,Gust SpeedMPH,PrecipitationIn,Events,Conditions,WindDirDegrees,DateUTC
12:00 AM,82.4,78.8,89,29.83,-9999.0,North,-9999.0,-,N/A,,Unknown,0,2012-10-28 04:00:00
1:00 AM,82.4,78.8,89,29.80,-9999.0,North,-9999.0,-,N/A,,Unknown,0,2012-10-28 05:00:00
2:00 AM,82,79,89,,,Calm,Calm,,,,Clear,,2012-10-28 06:00:00
2:00 AM,82.4,78.8,89,29.80,-9999.0,North,-9999.0,-,N/A,,Unknown,0,2012-10-28 06:00:00
3:00 AM,82.4,78.8,89,29.80,-9999.0,North,-9999.0,-,N/A,,Unknown,0,2012-10-28 07:00:00
4:00 AM,82.4,78.8,89,29.80,-9999.0,North,-9999.0,-,N/A,,Unknown,0,2012-10-28 08:00:00
5:00 AM,82,79,87,,,Calm,Calm,,,,Clear,,2012-10-28 09:00:00
5:00 AM,82.4,78.8,89,29.80,-9999.0,North,-9999.0,-,N/A,,Unknown,0,2012-10-28 09:00:00
6:00 AM,82.4,78.8,89,29.80,-9999.0,North,-9999.0,-,N/A,,Unknown,0,2012-10-28 10:00:00
7:00 AM,82.4,80.6,94,29.83,-9999.0,North,-9999.0,-,N/A,,Unknown,0,2012-10-28 11:00:00
8:00 AM,87,81,78,,,Calm,Calm,,,,Clear,,2012-10-28 12:00:00
8:00 AM,87.8,80.6,79,29.83,-9999.0,North,-9999.0,-,N/A,,Unknown,0,2012-10-28 12:00:00
9:00 AM,87.8,80.6,79,29.86,6.2,SSE,10.4,-,N/A,,Mostly Cloudy,150,2012-10-28 13:00:00
10:00 AM,87.8,78.8,75,29.86,-9999.0,North,-9999.0,-,N/A,,Unknown,0,2012-10-28 14:00:00
11:00 AM,92,85,75,29.87,19,SSE,10.4,,,,Scattered Clouds,160,2012-10-28 15:00:00
11:00 AM,89.6,78.8,70,29.86,6.2,SSE,10.4,-,N/A,,Partly Cloudy,160,2012-10-28 15:00:00
12:00 PM,89.6,78.8,70,29.83,-9999.0,North,-9999.0,-,N/A,,Unknown,0,2012-10-28 16:00:00
1:00 PM,89.6,80.6,75,29.83,6.2,SE,10.4,-,N/A,,Partly Cloudy,130,2012-10-28 17:00:00
2:00 PM,89.6,78.8,70,29.77,6.2,SE,9.2,-,N/A,,Partly Cloudy,130,2012-10-28 18:00:00
3:00 PM,91.4,80.6,71,29.74,6.2,East,10.4,-,N/A,,Partly Cloudy,100,2012-10-28 19:00:00
4:00 PM,89.6,80.6,75,29.74,6.2,East,11.5,-,N/A,,Scattered Clouds,90,2012-10-28 20:00:00
5:00 PM,88,81,73,29.77,19,East,12.7,,,,Partly Cloudy,90,2012-10-28 21:00:00
5:00 PM,87.8,80.6,79,29.74,6.2,East,12.7,-,N/A,,Scattered Clouds,90,2012-10-28 21:00:00
6:00 PM,86.0,80.6,84,29.74,6.2,East,13.8,-,N/A,,Partly Cloudy,90,2012-10-28 22:00:00
8:00 PM,84,80,83,29.81,16,East,10.4,,,,Scattered Clouds,80,2012-10-29 00:00:00
8:00 PM,84.2,80.6,89,29.80,6.2,East,10.4,-,N/A,,Partly Cloudy,80,2012-10-29 00:00:00